[[{"header":{"parameterUnit":"m.s-1","parameterCategory":1,"la1":30.2991,"la2":30.254,"lo1":-89.0895,"lo2":-89.0444,"dx":0.0017,"dy":0.0017,"nx":28,"ny":28,"refTime":"2023-02-12T09:00:00:Z","depth":0,"parameterNumber":2,"parameterNumberName":"U-component_of_WINDS"},"data":[0,0,0,0,0,0,0,0,0,0,0,0,0,0,0,0,0,0,0,0,0,0,0,0,0,0,0,0,0,0,0,0,0,0,0,0,0,0,0,0,0,0,0,0,0,0,0,0,0,0,0,0,0,0,0,0,0,0,1.3461,1.3462,0,1.3531,1.3531,1.3532,1.355,1.355,1.3549,1.3549,1.3622,1.3625,1.3627,0,0,0,0,0,0,0,0,0,0,0,0,0,1.3346,1.3348,1.3461,1.3462,1.3463,1.353,1.3531,1.3532,1.355,1.355,1.3549,1.3549,1.3622,1.3624,1.3627,0,0,0,0,0,0,0,0,0,0,0,0,0,1.3404,1.3349,1.3461,1.348,1.3482,1.353,1.3531,1.3533,1.355,1.355,1.3549,1.3548,1.3621,1.3624,1.3627,1.3662,0,0,1.3638,1.364,0,0,0,0,0,0,0,0,1.34,1.3408,1.3476,1.3479,1.3481,1.3531,1.3518,1.3576,1.3551,1.3525,1.3549,1.3548,1.3593,1.3598,1.3613,1.3666,1.3669,1.3639,1.3641,1.3642,1.3643,0,0,0,0,0,0,0,1.3396,1.3405,1.3489,1.3477,1.348,1.3485,1.3493,1.3529,1.3561,1.3527,1.3528,1.3536,1.3594,1.3609,1.3615,1.367,1.3638,1.3642,1.3644,1.3645,1.3755,1.3755,0,0,0,0,0,0,1.3389,1.3402,1.3486,1.3491,1.3438,1.3488,1.3496,1.3516,1.3561,1.3567,1.3537,1.3537,1.3604,1.3611,1.3617,1.3661,1.3642,1.3646,1.3648,1.3754,1.3755,1.3756,0,0,0,0,0,0,1.3386,1.3396,1.3484,1.3447,1.3458,1.3491,1.3512,1.3517,1.3533,1.3568,1.3575,1.3546,1.3603,1.3612,1.3651,1.3664,1.3647,1.365,1.3753,1.3754,1.3755,1.3748,0,0,0,0,0,0,1.3383,1.3395,1.3408,1.3447,1.346,1.3515,1.3513,1.3519,1.3539,1.354,1.3579,1.3585,1.3604,1.3645,1.3654,1.3668,1.3653,1.3752,1.3753,1.3755,1.3747,1.3749,1.375,0,0,0,0,0,1.3379,1.3404,1.3409,1.3419,1.3477,1.3516,1.3524,1.3544,1.354,1.3553,1.3576,1.3584,1.3661,1.3649,1.3659,1.3675,1.3751,1.3753,1.3755,1.3747,1.3749,1.375,0,0,0,0,0,0,1.3367,1.3409,1.3415,1.3454,1.3481,1.3519,1.3537,1.3545,1.3575,1.3574,1.3599,1.3607,1.3644,1.3663,1.365,1.371,1.3706,1.371,1.3697,1.3699,1.37,1.3695,1.3656,0,0,0,0,0,1.3369,1.3396,1.3432,1.3463,1.3476,1.3504,1.3522,1.3535,1.3564,1.3576,1.3602,1.3631,1.3661,1.3681,1.3711,1.375,1.3759,1.3766,1.3767,1.3768,1.3771,1.3793,1.3796,1.3761,1.3761,1.3761,0,0,1.3373,1.34,1.3416,1.3461,1.3484,1.3512,1.3514,1.3544,1.3565,1.3581,1.3618,1.3638,1.3672,1.3711,1.3729,1.3728,1.3783,1.377,1.3771,1.3774,1.3795,1.3798,1.3801,1.3763,1.3762,1.3762,0,0,1.3395,1.3418,1.3446,1.3468,1.3502,1.3521,1.3527,1.3564,1.3577,1.3615,1.3628,1.3654,1.3706,1.373,1.3749,1.3779,1.3787,1.3788,1.3796,1.3817,1.382,1.3822,1.3833,1.3837,1.3791,1.3791,1.3791,0,1.3396,1.3439,1.3459,1.3489,1.3508,1.3523,1.3551,1.3573,1.3615,1.3628,1.3626,1.3692,1.3716,1.376,1.3767,1.3782,1.3791,1.3784,1.3818,1.382,1.3823,1.3834,1.3838,1.3791,1.3791,1.3791,1.3791,0,1.3439,1.3468,1.3487,1.3526,1.3548,1.3577,1.3602,1.3622,1.3633,1.3651,1.369,1.3719,1.3755,1.3766,1.3778,1.3812,1.3811,1.3813,1.3809,1.3826,1.3836,1.3841,1.3791,1.3791,1.3791,1.3791,0,0,1.3456,1.3506,1.3512,1.353,1.3569,1.3592,1.3622,1.3657,1.3673,1.3702,1.3727,1.3771,1.3773,1.3794,1.3809,1.3827,1.3849,1.3827,1.3828,1.383,1.3889,1.3887,1.3891,1.3855,1.3856,1.3856,1.3886,0,1.3483,1.3535,1.3554,1.3598,1.3625,1.364,1.3665,1.3692,1.371,1.3737,1.3757,1.3788,1.3788,1.3801,1.382,1.3842,1.3861,1.3841,1.3879,1.388,1.387,1.3897,1.3895,1.3921,1.389,1.3891,1.3891,0,1.3521,1.355,1.3596,1.363,1.3643,1.3665,1.3699,1.3724,1.3754,1.3766,1.3789,1.3802,1.3834,1.3828,1.3873,1.3858,1.3875,1.3888,1.389,1.3894,1.3887,1.3902,1.393,1.3934,1.3898,1.3897,1.3897,0,1.3529,1.3579,1.3613,1.3628,1.3669,1.3685,1.3703,1.3733,1.3752,1.3781,1.3794,1.3827,1.3845,1.387,1.3892,1.3885,1.3934,1.393,1.3945,1.3945,1.3955,1.3954,1.3986,1.3966,1.3966,1.3966,1.3966,0,1.3557,1.3585,1.3616,1.3637,1.3669,1.369,1.3721,1.374,1.3766,1.3792,1.3806,1.383,1.3857,1.3884,1.3901,1.3935,1.3943,1.3954,1.3958,1.3952,1.3951,1.3964,1.3962,1.3967,1.3966,1.3966,1.3966,0,1.3571,1.3593,1.3631,1.3667,1.3677,1.3698,1.3729,1.375,1.3769,1.3801,1.3809,1.3839,1.3871,1.3895,1.3937,1.3949,1.3985,1.3989,1.3974,1.3977,1.399,1.3989,1.4032,1.4039,1.4014,1.4014,1.4014,0,1.3587,1.3609,1.3647,1.3664,1.3682,1.371,1.373,1.3752,1.3772,1.3808,1.3825,1.3858,1.3886,1.3937,1.3963,1.3995,1.4,1.4013,1.4005,1.3999,1.4,1.3999,1.4001,1.4014,1.4015,1.4015,1.4015,0,1.3614,1.3624,1.3651,1.3683,1.3706,1.3732,1.3758,1.3772,1.3799,1.3821,1.3853,1.3875,1.3918,1.395,1.3985,1.4004,1.4014,1.4017,1.4022,1.4017,1.4007,1.4012,1.3977,1.4016,1.4016,1.4016,1.4016,1.4016,1.3629,1.3649,1.3679,1.3709,1.3731,1.3755,1.3776,1.3797,1.3825,1.3861,1.3872,1.3907,1.3937,1.3984,1.4004,1.4031,1.4031,1.4038,1.404,1.4042,1.4041,1.4003,1.4037,1.4037,1.4037,1.4037,1.4037,0,1.3657,1.3676,1.3704,1.374,1.3764,1.377,1.3799,1.3819,1.3849,1.3875,1.3902,1.394,1.3972,1.4,1.4033,1.4049,1.4055,1.4057,1.4056,1.406,1.404,1.4032,1.4052,1.4052,1.4052,1.4052,1.4052,1.4052,1.3673,1.3707,1.372,1.3765,1.3785,1.3818,1.3834,1.3856,1.3878,1.3919,1.3945,1.3963,1.399,1.4025,1.4055,1.4062,1.4074,1.4075,1.4084,1.4064,1.4062,1.406,1.4053,1.4078,1.4078,1.4102,1.4103,1.4103]},{"header":{"parameterUnit":"m.s-1","parameterCategory":1,"la1":30.2991,"la2":30.254,"lo1":-89.0895,"lo2":-89.0444,"dx":0.0017,"dy":0.0017,"nx":28,"ny":28,"refTime":"2023-02-12T09:00:00:Z","depth":0,"parameterNumber":3,"parameterNumberName":"V-component_of_WINDS"},"data":[0,0,0,0,0,0,0,0,0,0,0,0,0,0,0,0,0,0,0,0,0,0,0,0,0,0,0,0,0,0,0,0,0,0,0,0,0,0,0,0,0,0,0,0,0,0,0,0,0,0,0,0,0,0,0,0,0,0,2.2646,2.2646,0,2.2602,2.2602,2.2601,2.2598,2.2599,2.2599,2.26,2.2549,2.2547,2.2545,0,0,0,0,0,0,0,0,0,0,0,0,0,2.2722,2.2721,2.2647,2.2646,2.2645,2.2602,2.2602,2.2601,2.2598,2.2599,2.2599,2.26,2.255,2.2547,2.2545,0,0,0,0,0,0,0,0,0,0,0,0,0,2.2684,2.272,2.2647,2.2639,2.2638,2.2603,2.2602,2.2601,2.2598,2.2599,2.2599,2.26,2.255,2.2548,2.2545,2.2513,0,0,2.2537,2.2536,0,0,0,0,0,0,0,0,2.2687,2.2682,2.264,2.2639,2.2638,2.2607,2.261,2.2571,2.2598,2.2613,2.26,2.26,2.2567,2.2563,2.2553,2.2511,2.2509,2.2536,2.2535,2.2534,2.2533,0,0,0,0,0,0,0,2.2689,2.2684,2.2629,2.264,2.2638,2.2635,2.2631,2.2603,2.2586,2.2611,2.2611,2.2606,2.2567,2.2556,2.2552,2.2508,2.2537,2.2534,2.2532,2.2531,2.2434,2.2433,0,0,0,0,0,0,2.2694,2.2686,2.263,2.2628,2.2665,2.2633,2.2628,2.2616,2.2586,2.2583,2.2606,2.2606,2.256,2.2555,2.255,2.2509,2.2534,2.2531,2.253,2.2435,2.2434,2.2433,0,0,0,0,0,0,2.2696,2.2689,2.2632,2.2657,2.2649,2.2631,2.2617,2.2614,2.2604,2.2582,2.2579,2.2598,2.256,2.2554,2.2522,2.2507,2.253,2.2527,2.2436,2.2435,2.2433,2.2427,0,0,0,0,0,0,2.2698,2.269,2.2679,2.2656,2.2648,2.2607,2.2616,2.2613,2.26,2.26,2.2574,2.257,2.256,2.2526,2.2519,2.2504,2.2525,2.2437,2.2435,2.2434,2.2429,2.2426,2.2423,0,0,0,0,0,2.2701,2.2679,2.2679,2.2672,2.2634,2.2606,2.2601,2.2592,2.2599,2.2586,2.2572,2.2571,2.251,2.2523,2.2515,2.2499,2.2438,2.2436,2.2434,2.243,2.2426,2.2423,0,0,0,0,0,0,2.2699,2.2676,2.2675,2.2646,2.2628,2.2606,2.259,2.2588,2.2567,2.2568,2.2556,2.255,2.2518,2.2505,2.252,2.2465,2.2475,2.2471,2.2474,2.2471,2.2468,2.2471,2.2523,0,0,0,0,0,2.2695,2.2676,2.2656,2.2632,2.2623,2.2608,2.2595,2.259,2.257,2.2562,2.2546,2.2525,2.2501,2.2485,2.2462,2.2427,2.242,2.2412,2.2409,2.2407,2.2403,2.2381,2.2376,2.2426,2.2426,2.2426,0,0,2.2687,2.2672,2.266,2.2631,2.2616,2.2594,2.2602,2.2579,2.2561,2.2558,2.2527,2.2514,2.249,2.2456,2.244,2.2444,2.2388,2.2404,2.2403,2.24,2.2378,2.2373,2.2369,2.2424,2.2425,2.2425,0,0,2.2661,2.2648,2.2626,2.2611,2.259,2.258,2.2574,2.2552,2.2543,2.2512,2.2508,2.2487,2.2447,2.2429,2.2414,2.238,2.2377,2.2372,2.2358,2.2336,2.2332,2.2329,2.2314,2.2309,2.2369,2.2369,2.2369,0,2.2653,2.2621,2.2614,2.2591,2.2576,2.2574,2.2549,2.2535,2.2506,2.2495,2.2501,2.2449,2.2433,2.2393,2.2384,2.2374,2.2365,2.2375,2.2334,2.233,2.2326,2.2312,2.2307,2.2368,2.2369,2.2369,2.2369,0,2.2611,2.2589,2.2573,2.2547,2.2531,2.2507,2.2494,2.2479,2.2474,2.2462,2.2429,2.241,2.2381,2.2372,2.2367,2.233,2.2333,2.2337,2.2346,2.2321,2.2307,2.2302,2.2368,2.2368,2.2368,2.2368,0,0,2.2582,2.2552,2.2546,2.2533,2.2508,2.249,2.2465,2.2438,2.2424,2.2404,2.2381,2.2346,2.2348,2.2332,2.2325,2.2306,2.2276,2.2311,2.231,2.2303,2.2232,2.2228,2.2222,2.2275,2.2274,2.2273,2.2233,0,2.2552,2.2509,2.2501,2.2462,2.244,2.2437,2.2414,2.2395,2.2384,2.2362,2.2348,2.2323,2.2329,2.2319,2.23,2.2284,2.2261,2.2287,2.225,2.2249,2.2255,2.2215,2.2212,2.2175,2.2228,2.2227,2.2226,0,2.251,2.249,2.245,2.2426,2.2417,2.2397,2.2371,2.2351,2.2328,2.2321,2.2302,2.2297,2.2267,2.2279,2.2237,2.2255,2.2239,2.2229,2.2227,2.2221,2.2235,2.2207,2.2164,2.2157,2.2218,2.2219,2.2219,0,2.249,2.2453,2.2424,2.2413,2.2385,2.2371,2.2358,2.2337,2.2321,2.2298,2.2286,2.226,2.2244,2.2222,2.2208,2.2219,2.2166,2.2178,2.2157,2.2157,2.2145,2.2145,2.2096,2.2138,2.2138,2.2138,2.2138,0,2.2456,2.2431,2.2414,2.2396,2.2367,2.2356,2.2327,2.2314,2.2295,2.2272,2.2267,2.2245,2.2229,2.2204,2.2193,2.2158,2.2152,2.2143,2.214,2.2142,2.2143,2.213,2.2132,2.2137,2.2137,2.2137,2.2138,0,2.2428,2.2417,2.2384,2.236,2.2354,2.2333,2.2312,2.2292,2.2281,2.2251,2.2244,2.2224,2.2195,2.2179,2.2142,2.2134,2.2094,2.2094,2.2102,2.21,2.208,2.2081,2.2019,2.2009,2.206,2.2059,2.2059,0,2.2406,2.2387,2.2361,2.2347,2.2334,2.231,2.2294,2.2282,2.2265,2.2237,2.222,2.2191,2.2166,2.2118,2.2099,2.207,2.2067,2.2047,2.2062,2.2064,2.2063,2.2064,2.2061,2.2044,2.2044,2.2043,2.2043,0,2.2367,2.2362,2.234,2.2315,2.2296,2.2276,2.2255,2.2243,2.2227,2.2208,2.2178,2.2159,2.2121,2.209,2.2059,2.2043,2.2039,2.2039,2.2032,2.2033,2.2038,2.2032,2.2093,2.204,2.204,2.204,2.204,2.204,2.234,2.2322,2.2301,2.2275,2.2259,2.224,2.222,2.2206,2.2181,2.215,2.2145,2.2112,2.2087,2.2045,2.2029,2.2001,2.2005,2.1996,2.1993,2.199,2.1988,2.2044,2.1996,2.1996,2.1996,2.1996,2.1996,0,2.2299,2.2285,2.2262,2.2234,2.2213,2.2214,2.219,2.2172,2.2145,2.2123,2.2099,2.2063,2.2033,2.2011,2.198,2.1962,2.1959,2.1954,2.1954,2.195,2.1988,2.1996,2.1957,2.1957,2.1957,2.1957,2.1957,2.1957,2.2275,2.2244,2.2236,2.2195,2.2181,2.215,2.2136,2.2117,2.21,2.2061,2.2036,2.2023,2.2,2.1967,2.1938,2.1932,2.192,2.1914,2.1908,2.1943,2.1947,2.1951,2.1959,2.1912,2.1912,2.1872,2.1871,2.1871]}]]